GW3498 Weather Reports


Display with metric or nautical units.
time (UTC)temp
F
wind
direction
speed
MPH
gust
MPH
rain 1hr
in
rain 24hr
in
rain mn
in
humidity
%
barometer
mb
20260505052528 52 177 1.0 1.0 0.02 0.16 0.16 98 1015.9
20260505051543 52 174 1.0 1.0 0.03 0.16 0.16 98 1015.8
20260505050535 52 153 0.0 1.0 0.04 0.16 0.16 98 1016.0
20260505041528 52 0.0 0.0 0.10 0.13 0.13 96 1015.8
20260505040543 52 0.0 0.0 0.10 0.12 0.12 95 1015.6
20260505035517 52 230 0.0 1.0 0.11 0.11 0.11 95 1015.6
20260505034531 52 319 0.0 1.0 0.09 0.09 0.09 94 1015.7
20260505033526 52 3 1.0 3.0 0.07 0.07 0.07 93 1015.7
20260505032541 52 12 0.0 1.0 0.06 0.06 0.06 91 1015.8
20260505031536 53 6 1.0 2.0 0.03 0.03 0.03 89 1015.9
20260505030549 54 174 0.0 1.0 0.02 0.02 0.02 85 1015.9
20260505025525 54 294 0.0 1.0 0.00 0.00 0.00 79 1016.0
20260505024519 54 177 1.0 2.0 0.00 0.00 0.00 82 1015.9
20260505023534 54 0.0 0.0 0.00 0.00 0.00 85 1016.0
20260505022548 54 209 1.0 4.0 0.00 0.00 0.00 84 1015.9
20260505021522 54 309 0.0 1.0 0.00 0.00 0.00 85 1015.9
20260505020517 55 196 0.0 1.0 0.00 0.00 0.00 84 1016.0
20260505015534 55 162 0.0 1.0 0.00 0.00 0.00 83 1016.0
20260505014526 55 176 0.0 1.0 0.00 0.00 0.00 82 1016.0
20260505013520 55 0.0 0.0 0.00 0.00 0.00 81 1016.2
20260505012536 55 152 0.0 1.0 0.00 0.00 0.00 80 1016.1
20260505011530 55 0.0 0.0 0.00 0.00 0.00 79 1016.2
20260505010545 55 94 0.0 1.0 0.00 0.00 0.00 79 1016.4
20260505005519 55 0.0 0.0 0.00 0.00 0.00 78 1016.4
20260505004535 55 0.0 0.0 0.00 0.00 0.00 78 1016.4
20260505003534 55 0.0 0.0 0.00 0.00 0.00 78 1016.5
20260505002524 56 0.0 0.0 0.00 0.00 0.00 76 1016.7
20260505001520 56 104 0.0 1.0 0.00 0.00 0.00 75 1017.1
20260505000534 56 0.0 0.0 0.00 0.00 0.00 75 1017.2
20260504235528 55 0.0 0.0 0.00 0.00 0.00 73 1017.0
20260504234524 55 0.0 0.0 0.00 0.00 0.00 71 1017.1
20260504233517 55 0.0 0.0 0.00 0.00 0.00 72 1017.1
20260504232532 56 0.0 0.0 0.00 0.00 0.00 69 1017.2
20260504231527 56 0.0 0.0 0.00 0.00 0.00 66 1017.3
20260504230522 56 0.0 0.0 0.00 0.00 0.00 66 1017.6
20260504225516 57 0.0 0.0 0.00 0.00 0.00 65 1017.7
20260504224531 57 12 0.0 1.0 0.00 0.00 0.00 64 1017.7
20260504223527 56 18 1.0 1.0 0.00 0.00 0.00 64 1017.7
20260504222520 56 0.0 0.0 0.00 0.00 0.00 64 1017.7
20260504221535 56 4 0.0 1.0 0.00 0.00 0.00 64 1017.7
20260504220529 56 26 0.0 1.0 0.00 0.00 0.00 64 1017.7
20260504215544 57 20 0.0 1.0 0.00 0.00 0.00 60 1017.8
20260504214518 56 22 1.0 2.0 0.00 0.00 0.00 61 1017.8
20260504213532 56 12 0.0 1.0 0.00 0.00 0.00 66 1017.8
20260504212526 56 16 0.0 1.0 0.00 0.00 0.00 68 1017.8
20260504211521 55 22 1.0 1.0 0.00 0.00 0.00 71 1017.8
20260504210517 55 25 0.0 1.0 0.00 0.00 0.00 75 1018.1
20260504205552 54 31 1.0 1.0 0.00 0.00 0.00 79 1018.3
20260504204527 55 0.0 0.0 0.00 0.00 0.00 80 1018.2
20260504203522 55 31 0.0 1.0 0.00 0.00 0.00 80 1018.3
20260504202517 55 24 0.0 1.0 0.00 0.00 0.00 78 1018.2
20260504201555 55 25 0.0 1.0 0.00 0.00 0.00 76 1018.0
20260504200528 55 203 0.0 1.0 0.00 0.00 0.00 75 1017.8
20260504195524 55 0.0 0.0 0.00 0.00 0.00 77 1017.9
20260504194519 56 0.0 0.0 0.00 0.00 0.00 78 1017.9
20260504193534 56 0.0 0.0 0.00 0.00 0.00 79 1018.2
20260504192531 56 0.0 0.0 0.00 0.00 0.00 79 1018.0
20260504191525 56 40 0.0 1.0 0.00 0.00 0.00 79 1017.9
20260504190523 56 0.0 0.0 0.00 0.00 0.00 78 1017.8
20260504185616 57 16 0.0 1.0 0.00 0.00 0.00 77 1017.8
20260504184531 57 57 0.0 1.0 0.00 0.00 0.00 76 1017.7
20260504183547 57 136 1.0 2.0 0.00 0.00 0.00 74 1017.7
20260504182543 57 9 0.0 1.0 0.00 0.00 0.00 72 1017.6
20260504181516 57 0.0 0.0 0.00 0.00 0.00 70 1017.8
20260504180534 58 0.0 0.0 0.00 0.00 0.00 72 1017.6
20260504175527 58 355 0.0 1.0 0.00 0.00 0.00 73 1017.5
20260504174522 58 124 0.0 2.0 0.00 0.00 0.00 75 1017.6
20260504173517 59 22 0.0 1.0 0.00 0.00 0.00 75 1017.6
20260504172552 59 18 1.0 4.0 0.00 0.00 0.00 75 1017.5
20260504171528 59 33 0.0 2.0 0.00 0.00 0.00 73 1017.7
20260504170522 60 215 1.0 2.0 0.00 0.00 0.00 69 1017.8